Hourly Data Report for September 17, 2021

TORONTO CITY
ONTARIO
Current Station Operator: ECCC - MSC

43°40'00.000" N
79°24'00.000" W
112.50 m
6158355
71508
XTO

Download Data

Hourly Data (September 2021)
Hourly Data Report for September 17, 2021
TIME
LST
Temp Definition
°C
Dew Point Definition
°C
Rel Hum Definition
%
Precip. Amount Definition
mm

Wind Dir Definition
10's deg

Wind Spd Definition
km/h
Visibility Definition
km
Stn Press Definition
kPa
Hmdx Definition


Wind Chill Definition


Weather Definition


00:00 19.3 15.9 81 0.0       100.79     LegendNANA
01:00 18.7 16.0 84 0.0       100.78     LegendNANA
02:00 18.4 16.1 86 0.0       100.79     LegendNANA
03:00 17.3 15.6 90 0.0       100.79     LegendNANA
04:00 17.0 15.3 90 0.0       100.81     LegendNANA
05:00 17.1 15.8 92 0.0       100.81     LegendNANA
06:00 17.3 15.7 90 0.0       100.82     LegendNANA
07:00 18.7 17.2 91 0.0       100.82     LegendNANA
08:00 19.8 17.6 87 0.0       100.83     LegendNANA
09:00 21.3 18.5 84 0.0       100.83 28   LegendNANA
10:00 21.8 18.1 79 0.0       100.87 28   LegendNANA
11:00 23.7 18.7 74 0.0       100.85 30   LegendNANA
12:00 25.2 18.9 68 0.0       100.80 32   LegendNANA
13:00 25.5 18.2 64 0.0       100.72 32   LegendNANA
14:00 26.2 19.2 65 0.0       100.64 33   LegendNANA
15:00 25.8 19.2 67 0.0       100.58 33   LegendNANA
16:00 24.6 18.8 70 0.0       100.53 31   LegendNANA
17:00 23.7 19.3 76 0.0       100.48 31   LegendNANA
18:00 22.3 19.6 85 0.0       100.46 30   LegendNANA
19:00 21.7 19.5 87 0.0       100.43 29   LegendNANA
20:00 21.8 19.1 85 0.0       100.47 29   LegendNANA
21:00 21.0 19.2 89 0.0       100.45 28   LegendNANA
22:00 20.6 19.2 92 0.0       100.42 28   LegendNANA
23:00 20.1 19.0 93 0.0       100.45 27   LegendNANA

Notes on Data Quality.

Legend

  • E = Estimated
  • M = Missing
  • NA = Not Available*
  • [empty] = Indicates an unobserved value
Date modified: